Flag for U.S.A. Weather past 2 weeks in Columbus, Georgia, U.S.A.

Now
86 °F

Scattered clouds.


Feels Like: 90 °F
Forecast: 69 / 85 °F
Wind: No wind

Location: Columbus Metropolitan Airport

Current Time: Sep 16, 2014 at 2:26:05 PM

Latest Report: Sep 16, 2014 at 1:51 PM


Visibility: 10 mi

Pressure: 30.01 "Hg

Humidity: 57%

Dew point: 69 °F

Location of ColumbusLocation

Historic Weather in Columbus — Graph

°F

Columbus temperature yesterday

Maximum temperature yesterday: 86 °F (at 4:51 PM)
Minimum temperature yesterday: 71 °F (at 6:51 AM)
Average temperature yesterday: 77 °F

Past Weeks' High & Low Weather Summary

 TemperatureHumidityPressure
High96 °F (Sep 2, 4:51 PM)97% (Sep 4, 9:51 PM)30.18 "Hg (Sep 4, 9:51 PM)
Low71 °F (Sep 4, 3:51 AM)37% (Sep 2, 4:51 PM)29.87 "Hg (Sep 7, 4:51 PM)
Average79 °F78%30.03 "Hg
* Reported Sep 1 12:51 PM — Sep 16 12:51 PM, Columbus, Weather by CustomWeather, © 2014

Note: Actual official high and low records may vary slightly from our data, if they occured in-between our weather recording intervals... More about our weather records

Advertising

Columbus weather history for previous 24 hours

 ConditionsComfort  
Time TempWeatherWind HumidityBarometerVisibility
12:51 PM
Sep 16
86 °FScattered clouds.No wind57%30.02 "Hg10 mi
11:51 AM85 °FPassing clouds.6 mph61%30.04 "Hg10 mi
10:51 AM81 °FScattered clouds.3 mph74%30.06 "Hg10 mi
9:51 AM77 °FPartly sunny.5 mph85%30.07 "Hg10 mi
8:51 AM74 °FLow clouds.No wind94%30.06 "Hg7 mi
7:51 AM74 °FLow clouds.No wind94%30.05 "Hg10 mi
6:51 AM73 °FClear.No wind97%30.04 "Hg10 mi
5:51 AM74 °FClear.No wind94%30.05 "Hg10 mi
4:51 AM74 °FPassing clouds.No wind91%30.05 "Hg10 mi
3:51 AM74 °FLow clouds.No wind91%30.05 "Hg10 mi
3:02 AM73 °FPassing clouds.No wind94%30.08 "Hg10 mi
2:51 AM74 °FPassing clouds.No wind91%30.06 "Hg10 mi
1:51 AM75 °FClear.3 mph90%30.07 "Hg10 mi
12:51 AM75 °FPassing clouds.3 mph90%30.08 "Hg10 mi
11:51 PM
Sep 15
77 °FPassing clouds.6 mph85%30.10 "Hg10 mi
10:51 PM77 °FClear.6 mph88%30.10 "Hg10 mi
9:51 PM79 °FClear.3 mph82%30.09 "Hg10 mi
8:51 PM81 °FClear.5 mph77%30.09 "Hg10 mi
7:51 PM82 °FSunny.5 mph72%30.07 "Hg10 mi
6:51 PM85 °FSunny.3 mph61%30.06 "Hg10 mi
5:51 PM85 °FSunny.No wind59%30.06 "Hg10 mi
4:51 PM86 °FSunny.5 mph61%30.05 "Hg10 mi
3:51 PM84 °FSunny.No wind65%30.08 "Hg10 mi
2:51 PM81 °FSunny.No wind72%30.11 "Hg10 mi
Weather by CustomWeather, © 2014

See weather overviewHow to use our weather pages